| time (UTC) | temp C | wind direction | speed KPH | gust KPH | rain 1hr cm | rain 24hr cm | rain mn cm | humidity % | barometer mb |
| 20260504171403 | 22 | 236 | 9.7 | 19.3 | 0.00 | 0.00 | 0.00 | 47 | 1012.1 |
| 20260504170404 | 22 | 216 | 4.8 | 22.5 | 0.00 | 0.00 | 0.00 | 47 | 1012.1 |
| 20260504160405 | 22 | 249 | 14.5 | 32.2 | 0.00 | 0.00 | 0.00 | 48 | 1012.3 |
| 20260504150406 | 21 | 270 | 8.0 | 19.3 | 0.00 | 0.00 | 0.00 | 46 | 1011.6 |
| 20260504140404 | 21 | 239 | 6.4 | 14.5 | 0.00 | 0.00 | 0.00 | 45 | 1011.0 |
| 20260504130403 | 21 | 281 | 4.8 | 9.7 | 0.00 | 0.00 | 0.00 | 42 | 1010.9 |
| 20260504070406 | 25 | 252 | 11.3 | 19.3 | 0.00 | 0.00 | 0.00 | 34 | 1009.6 |
| 20260504050406 | 26 | 236 | 8.0 | 22.5 | 0.00 | 0.00 | 0.00 | 27 | 1009.1 |
| 20260504044405 | 27 | 247 | 11.3 | 22.5 | 0.00 | 0.00 | 0.00 | 25 | 1008.9 |
| 20260504043404 | 27 | 237 | 16.1 | 29.0 | 0.00 | 0.00 | 0.00 | 24 | 1008.7 |
| 20260504041405 | 27 | 236 | 16.1 | 25.7 | 0.00 | 0.00 | 0.00 | 22 | 1008.5 |
| 20260504040404 | 27 | 253 | 16.1 | 32.2 | 0.00 | 0.00 | 0.00 | 22 | 1008.3 |
| 20260504031406 | 28 | 254 | 14.5 | 29.0 | 0.00 | 0.00 | 0.00 | 19 | 1007.2 |
| 20260504024405 | 30 | 264 | 12.9 | 32.2 | 0.00 | 0.00 | 0.00 | 18 | 1006.7 |
| 20260504023405 | 30 | 234 | 16.1 | 29.0 | 0.00 | 0.00 | 0.00 | 17 | 1006.5 |
| 20260504021404 | 30 | 245 | 12.9 | 29.0 | 0.00 | 0.00 | 0.00 | 17 | 1006.3 |
| 20260504020404 | 31 | 234 | 16.1 | 32.2 | 0.00 | 0.00 | 0.00 | 17 | 1006.1 |
| 20260504014408 | 31 | 242 | 12.9 | 25.7 | 0.00 | 0.00 | 0.00 | 17 | 1005.9 |
| 20260504013404 | 31 | 230 | 14.5 | 32.2 | 0.00 | 0.00 | 0.00 | 17 | 1005.7 |
| 20260504011408 | 32 | 235 | 16.1 | 32.2 | 0.00 | 0.00 | 0.00 | 16 | 1005.7 |
| 20260504010404 | 32 | 231 | 19.3 | 35.4 | 0.00 | 0.00 | 0.00 | 15 | 1005.7 |
| 20260504004403 | 33 | 236 | 16.1 | 32.2 | 0.00 | 0.00 | 0.00 | 14 | 1005.8 |
| 20260504003408 | 34 | 237 | 14.5 | 35.4 | 0.00 | 0.00 | 0.00 | 14 | 1005.8 |
| 20260504001404 | 35 | 245 | 16.1 | 32.2 | 0.00 | 0.00 | 0.00 | 13 | 1005.7 |
| 20260503234404 | 36 | 253 | 16.1 | 29.0 | 0.00 | 0.00 | 0.00 | 13 | 1005.6 |
| 20260503231407 | 37 | 234 | 9.7 | 20.9 | 0.00 | 0.00 | 0.00 | 12 | 1005.5 |
| 20260503230407 | 36 | 262 | 6.4 | 25.7 | 0.00 | 0.00 | 0.00 | 12 | 1005.5 |
| 20260503223407 | 37 | 223 | 14.5 | 22.5 | 0.00 | 0.00 | 0.00 | 12 | 1006.4 |
| 20260503221404 | 37 | 241 | 14.5 | 27.4 | 0.00 | 0.00 | 0.00 | 13 | 1006.7 |
| 20260503213404 | 37 | 252 | 11.3 | 25.7 | 0.00 | 0.00 | 0.00 | 13 | 1007.2 |
| 20260503210407 | 37 | 129 | 9.7 | 25.7 | 0.00 | 0.00 | 0.00 | 14 | 1007.6 |
| 20260503204404 | 37 | 159 | 4.8 | 19.3 | 0.00 | 0.00 | 0.00 | 14 | 1007.9 |
| 20260503203404 | 37 | 190 | 9.7 | 24.1 | 0.00 | 0.00 | 0.00 | 15 | 1008.1 |
| 20260503200407 | 36 | 151 | 3.2 | 19.3 | 0.00 | 0.00 | 0.00 | 17 | 1008.6 |
| 20260503194408 | 36 | 175 | 9.7 | 24.1 | 0.00 | 0.00 | 0.00 | 18 | 1008.9 |
| 20260503193407 | 36 | 192 | 9.7 | 22.5 | 0.00 | 0.00 | 0.00 | 19 | 1009.1 |
| 20260503190405 | 35 | 169 | 4.8 | 20.9 | 0.00 | 0.00 | 0.00 | 18 | 1009.5 |
| 20260503184405 | 35 | 162 | 8.0 | 19.3 | 0.00 | 0.00 | 0.00 | 20 | 1010.0 |
| 20260503181407 | 33 | 184 | 4.8 | 19.3 | 0.00 | 0.00 | 0.00 | 21 | 1010.3 |
| 20260503180403 | 33 | 174 | 11.3 | 22.5 | 0.00 | 0.00 | 0.00 | 26 | 1010.6 |
| 20260503174404 | 32 | 119 | 9.7 | 19.3 | 0.00 | 0.00 | 0.00 | 23 | 1010.8 |
| 20260503173408 | 31 | 139 | 11.3 | 22.5 | 0.00 | 0.00 | 0.00 | 24 | 1010.9 |